Overview Statistics Trail Chart Weather Telemetry Raw packets
 

This is the latest recevied weather packets stored in our database for station/object S51UL-6. If no packets are shown the sender has not sent any weather packets the latest 10 day(s).

<< 41 42 43 44 45 46 47 >>
Time Temp. Humidity Pressure Rain* Wind** Luminosity Snow
1788324985 15.56° C 90% 1022.8 hPa 0 mm - - -
1788324685 15.56° C 90% 1022.8 hPa 0 mm - - -
1788324385 15.56° C 90% 1022.7 hPa 0 mm - - -
1788323185 15.56° C 90% 1022.9 hPa 0 mm - - -
1788322885 15° C 90% 1022.9 hPa 0 mm - - -
1788322289 15° C 90% 1022.8 hPa 0 mm - - -
1788321985 15° C 89% 1022.8 hPa 0 mm - - -
1788321689 15° C 89% 1022.7 hPa 0 mm - - -
1788321088 15° C 89% 1022.6 hPa 0 mm - - -
1788320185 15.56° C 89% 1022.5 hPa 0 mm - - -
1788319587 15.56° C 89% 1022.6 hPa 0 mm - - -
1788318986 15.56° C 89% 1022.6 hPa 0.51 mm - - -
1788318688 15.56° C 89% 1022.5 hPa 0.51 mm - - -
1788318088 15.56° C 89% 1022.5 hPa 1.02 mm - - -
1788315986 15.56° C 88% 1022.6 hPa 1.52 mm - - -
1788315688 15.56° C 88% 1022.5 hPa 1.02 mm - - -
1788315386 15.56° C 87% 1022.3 hPa 1.02 mm - - -
1788314786 15.56° C 87% 1022.7 hPa 4.57 mm - - -
1788314489 15.56° C 87% 1022.8 hPa 9.91 mm - - -
1788313908 15.56° C 87% 1023.1 hPa 12.95 mm - - -
1788311188 15° C 87% 1022.8 hPa 39.37 mm - - -
1788310590 13.89° C 86% 1022.5 hPa 35.81 mm - - -
1788310344 13.89° C 86% 1022.7 hPa 34.04 mm - - -
1788310287 13.89° C 86% 1022.7 hPa 34.04 mm - - -
1788309991 13.89° C 85% 1022.2 hPa 32.51 mm - - -

* Rain latest hour (hover to see other rain measurements)
** Current wind speed in m/s (hover to see current wind gust speed)